"2009-06-24 00:00:00",1002542,11.56,188.9,1.598,0.397,19.46,107.8193,19.3,20.36,41.36,0,110.7,13.23,20.12,150.9
"2009-06-24 00:00:30",1002543,11.14,192.1,1.86,0.478,19.22,107.7993,19.24,20.33,41.25,0,110.7,13.24,20.06,154.1
"2009-06-24 00:01:00",1002544,11.37,192,1.685,0.213,19.15,107.7988,19.24,20.3,41.55,0,110.7,13.24,20.06,154.0
"2009-06-24 00:01:30",1002545,11.53,191,1.711,0.321,19.22,107.7856,19.21,20.29,41.87,0,110.7,13.24,20.03,153.0
"2009-06-24 00:02:00",1002546,12.1,191.6,5.068,0.587,19.17,107.7673,19.16,20.25,41.71,0,110.7,13.24,19.98,153.6
"2009-06-24 00:02:30",1002547,12.2,192.7,1.338,0.589,18.92,107.7662,19.16,20.23,41.65,0,110.7,13.24,19.98,154.7
"2009-06-24 00:03:00",1002548,12.75,193.5,1.017,0.303,18.79,107.7653,19.16,20.2,42.38,0,110.7,13.24,19.98,155.5
"2009-06-24 00:03:30",1002549,13.01,193.8,0.859,0.166,18.79,107.7522,19.12,20.19,42.82,0,110.7,13.24,19.94,155.8
"2009-06-24 00:04:00",1002550,12.36,192.5,1.947,0.419,18.95,107.7353,19.08,20.17,42.57,0,110.7,13.24,19.90,154.5
"2009-06-24 00:04:30",1002551,11.16,190.6,0.838,0.308,19.09,107.7331,19.07,20.15,41.67,0,110.7,13.24,19.89,152.6
"2009-06-24 00:05:00",1002552,11.28,192.1,1.175,0.333,18.98,107.7367,19.08,20.13,41.58,0,110.7,13.24,19.90,154.1
"2009-06-24 00:05:30",1002553,11.46,189.8,2.721,0.356,19.07,107.7388,19.09,20.12,41.66,0,110.7,13.25,19.91,151.8
"2009-06-24 00:06:00",1002554,11.92,189.5,1.402,0.443,19.19,107.7385,19.09,20.1,41.31,0,110.7,13.25,19.91,151.5
"2009-06-24 00:06:30",1002555,12.37,189.1,1.071,0.274,19.14,107.7373,19.09,20.08,41.33,0,110.7,13.25,19.90,151.1
"2009-06-24 00:07:00",1002556,12.53,189.2,0.567,0.155,19.1,107.7394,19.09,20.09,41.51,0,110.7,13.25,19.91,151.2
"2009-06-24 00:07:30",1002557,12.69,187.1,1.122,0.209,19.11,107.7382,19.09,20.08,41.43,0,110.7,13.25,19.91,149.1
"2009-06-24 00:08:00",1002558,12.94,187.5,0.61,0.134,19.13,107.7385,19.09,20.08,42.23,0,110.7,13.25,19.91,149.5
"2009-06-24 00:08:30",1002559,13.25,188.3,1.163,0.2,19.33,107.7425,19.1,20.09,43.07,0,110.7,13.25,19.92,150.3
"2009-06-24 00:09:00",1002560,13.95,189.5,0.73,0.211,19.87,107.7446,19.1,20.08,43.72,0,110.7,13.25,19.92,151.5
"2009-06-24 00:09:30",1002561,13.48,186.5,2.174,0.332,20.43,107.7434,19.1,20.09,43.51,0,110.7,13.25,19.92,148.5
"2009-06-24 00:10:00",1002562,12.99,184.6,1.311,0.24,20.53,107.7458,19.11,20.11,42.98,0,110.7,13.25,19.93,146.6
"2009-06-24 00:10:30",1002563,13.08,182.4,2.089,0.597,17.53,107.7519,19.12,20.1,42.84,0,110.7,13.25,19.94,144.4
"2009-06-24 00:11:00",1002564,12.81,182.6,0.936,0.263,19.98,107.7531,19.13,20.1,42.96,0,110.7,13.25,19.95,144.6
"2009-06-24 00:11:30",1002565,11.93,181.8,0.805,0.181,19.53,107.757,19.14,20.1,42.73,0,110.7,13.25,19.96,143.8
"2009-06-24 00:12:00",1002566,11.05,182.5,1.202,0.236,19.44,107.7582,19.14,20.1,42.44,0,110.7,13.25,19.96,144.5
"2009-06-24 00:12:30",1002567,11.23,181.6,2.627,0.356,19.59,107.7582,19.14,20.12,42.5,0,110.7,13.25,19.96,143.6
"2009-06-24 00:13:00",1002568,11.95,180.8,2.407,0.899,17.09,107.7576,19.14,20.1,42.55,0,110.7,13.25,19.96,142.8
"2009-06-24 00:13:30",1002569,12.97,185.8,1.498,0.236,20.14,107.7591,19.14,20.11,42.76,0,110.7,13.25,19.96,147.8
"2009-06-24 00:14:00",1002570,12.82,183.8,0.745,0.27,19.48,107.7615,19.15,20.11,42.78,0,110.7,13.25,19.97,145.8
"2009-06-24 00:14:30",1002571,13.14,183,0.708,0.269,20.14,107.7625,19.15,20.12,42.99,0,110.7,13.25,19.97,145.0
"2009-06-24 00:15:00",1002572,12.54,182.4,1.159,0.203,19.69,107.7679,19.16,20.13,42.77,0,110.7,13.25,19.98,144.4
"2009-06-24 00:15:30",1002573,12.61,181.3,0.631,0.165,19.39,107.7667,19.16,20.13,42.62,0,110.7,13.25,19.98,143.3
"2009-06-24 00:16:00",1002574,12.85,182.5,0.82,0.204,19.03,107.7663,19.16,20.14,42.93,0,110.7,13.25,19.98,144.5
"2009-06-24 00:16:30",1002575,12.86,182.4,0.807,0.262,18.9,107.7667,19.16,20.12,43.22,0,110.7,13.25,19.98,144.4
"2009-06-24 00:17:00",1002576,13.23,180.3,0.765,0.115,18.61,107.7676,19.16,20.13,42.86,0,110.7,13.25,19.98,142.3
"2009-06-24 00:17:30",1002577,13.71,179.9,0.693,0.331,18.58,107.7676,19.16,20.14,42.61,0,110.7,13.24,19.98,141.9
"2009-06-24 00:18:00",1002578,14.36,181,0.767,0.445,18.36,107.767,19.16,20.12,42.86,0,110.7,13.25,19.98,143.0
"2009-06-24 00:18:30",1002579,14.68,181.4,0.673,0.238,18.37,107.7611,19.15,20.1,43.29,0,110.7,13.25,19.97,143.4
"2009-06-24 00:19:00",1002580,14.66,182.4,0.449,0.283,18.41,107.7398,19.09,20.09,43.53,0,110.7,13.25,19.91,144.4
"2009-06-24 00:19:30",1002581,14.87,182.1,0.359,0.122,18.29,107.7339,19.08,20.1,44,0,110.7,13.25,19.90,144.1
"2009-06-24 00:20:00",1002582,14.35,182,0.461,0.175,18.26,107.7339,19.08,20.07,43.94,0,110.7,13.25,19.90,144.0
"2009-06-24 00:20:30",1002583,13.73,182.3,0.255,0.152,18.35,107.7181,19.04,20.06,43.57,0,110.7,13.25,19.85,144.3
"2009-06-24 00:21:00",1002584,13.41,182.9,0.183,0.069,18.44,107.7026,19,20.04,43.53,0,110.7,13.26,19.82,144.9
"2009-06-24 00:21:30",1002585,13.3,183.6,0.526,0.089,18.49,107.7001,18.99,20,43.73,0,110.7,13.26,19.81,145.6
"2009-06-24 00:22:00",1002586,13.48,182.6,0.425,0.135,18.4,107.6992,18.99,19.99,43.82,0,110.7,13.26,19.81,144.6
"2009-06-24 00:22:30",1002587,13.38,181.4,0.399,0.143,18.52,107.681,18.94,19.98,43.52,0,110.7,13.26,19.76,143.4
"2009-06-24 00:23:00",1002588,13.99,180.1,1.194,0.296,18.22,107.6683,18.91,19.96,43.81,0,110.7,13.26,19.73,142.1
"2009-06-24 00:23:30",1002589,14.16,176.6,0.836,0.271,18.15,107.6663,18.9,19.94,43.91,0,110.7,13.26,19.72,138.6
"2009-06-24 00:24:00",1002590,14.42,176.2,0.585,0.262,18.19,107.6582,18.88,19.92,44.06,0,110.7,13.26,19.70,138.2
"2009-06-24 00:24:30",1002591,14.94,177,0.37,0.192,18.08,107.6328,18.82,19.9,44.63,0,110.7,13.26,19.64,139.0
"2009-06-24 00:25:00",1002592,15.05,177.4,0.516,0.136,18.11,107.6207,18.79,19.86,45.1,0,110.7,13.26,19.60,139.4
"2009-06-24 00:25:30",1002593,15.05,177.3,0.692,0.151,18.05,107.5988,18.73,19.83,45.42,0,110.7,13.26,19.55,139.3
"2009-06-24 00:26:00",1002594,14.69,177.8,0.595,0.335,18.12,107.5886,18.7,19.8,45.44,0,110.7,13.26,19.52,139.8
"2009-06-24 00:26:30",1002595,14.07,177.3,0.488,0.161,18.23,107.5653,18.64,19.75,44.9,0,110.7,13.26,19.46,139.3
"2009-06-24 00:27:00",1002596,13.31,176.3,0.683,0.273,18.33,107.5644,18.64,19.72,44.87,0,110.7,13.26,19.46,138.3
"2009-06-24 00:27:30",1002597,13.75,175.5,0.726,0.233,18.25,107.5439,18.59,19.7,45.17,0,110.7,13.26,19.41,137.5
"2009-06-24 00:28:00",1002598,13.8,177.3,1,0.249,18.01,107.5312,18.56,19.65,45.95,0,110.7,13.26,19.37,139.3
"2009-06-24 00:28:30",1002599,13.65,177.3,1.005,0.309,18.04,107.5312,18.56,19.63,45.8,0,110.7,13.26,19.37,139.3
"2009-06-24 00:29:00",1002600,13.34,176.3,0.922,0.202,18.11,107.527,18.55,19.6,45.93,0,110.7,13.26,19.36,138.3
"2009-06-24 00:29:30",1002601,13.62,176.1,0.538,0.14,18.03,107.5039,18.49,19.58,46.15,0,110.7,13.26,19.30,138.1
"2009-06-24 00:30:00",1002602,13.87,176.1,0.462,0.14,17.98,107.4975,18.47,19.55,46.68,0,110.7,13.26,19.29,138.1
"2009-06-24 00:30:30",1002603,13.92,176.2,0.647,0.215,17.91,107.4961,18.47,19.53,47.16,0,110.7,13.26,19.28,138.2
"2009-06-24 00:31:00",1002604,14.03,176.7,0.924,0.221,17.93,107.4693,18.4,19.51,47.57,0,110.7,13.26,19.21,138.7
"2009-06-24 00:31:30",1002605,13.94,176,0.913,0.181,17.92,107.4637,18.38,19.49,47.82,0,110.7,13.25,19.20,138.0
"2009-06-24 00:32:00",1002606,13.93,174.3,0.792,0.157,18.04,107.4423,18.33,19.45,47.67,0,110.7,13.25,19.15,136.3
"2009-06-24 00:32:30",1002607,13.8,173.7,0.823,0.154,17.88,107.4299,18.3,19.41,48.07,0,110.7,13.25,19.11,135.7
"2009-06-24 00:33:00",1002608,14.01,172.3,0.599,0.151,18.01,107.4091,18.24,19.37,48.1,0,110.7,13.25,19.06,134.3
"2009-06-24 00:33:30",1002609,14.01,171.6,1.178,0.192,17.94,107.3961,18.21,19.34,48.23,0,110.7,13.25,19.03,133.6
"2009-06-24 00:34:00",1002610,14.02,169.6,1.181,0.12,17.89,107.395,18.21,19.31,48.4,0,110.7,13.25,19.02,131.6
"2009-06-24 00:34:30",1002611,13.53,167.8,1.518,0.316,18.08,107.3857,18.18,19.28,48.11,0,110.7,13.25,19.00,129.8
"2009-06-24 00:35:00",1002612,13.17,166.3,0.472,0.149,18.2,107.3843,18.18,19.25,46.63,0,110.7,13.25,19.00,128.3
"2009-06-24 00:35:30",1002613,13.2,166.9,0.792,0.093,17.81,107.3916,18.2,19.22,47.74,0,110.7,13.25,19.01,128.9
"2009-06-24 00:36:00",1002614,13.19,165.6,0.761,0.144,17.81,107.3959,18.21,19.22,47.12,0,110.7,13.26,19.03,127.6
"2009-06-24 00:36:30",1002615,13.04,164.9,0.378,0.129,17.58,107.3961,18.21,19.22,47.45,0,110.7,13.26,19.03,126.9
"2009-06-24 00:37:00",1002616,12.97,167.5,0.78,0.155,17.56,107.3976,18.21,19.22,47.68,0,110.7,13.26,19.03,129.5
"2009-06-24 00:37:30",1002617,12.85,166.7,0.826,0.22,17.39,107.4057,18.24,19.23,48.44,0,110.7,13.26,19.05,128.7
"2009-06-24 00:38:00",1002618,12.96,165,0.699,0.088,17.39,107.4119,18.25,19.24,48.58,0,110.7,13.26,19.07,127.0
"2009-06-24 00:38:30",1002619,12.9,165.2,0.847,0.231,17.48,107.4187,18.27,19.24,48.39,0,110.7,13.26,19.08,127.2
"2009-06-24 00:39:00",1002620,12.9,165.1,1.185,0.366,17.39,107.4249,18.28,19.25,48.74,0,110.7,13.26,19.10,127.1
"2009-06-24 00:39:30",1002621,13.05,164.4,0.68,0.255,17.27,107.4206,18.27,19.25,49.49,0,110.7,13.26,19.09,126.4
"2009-06-24 00:40:00",1002622,12.71,165,0.775,0.138,17.37,107.4054,18.23,19.24,49.72,0,110.7,13.26,19.05,127.0
"2009-06-24 00:40:30",1002623,12.6,165.9,0.711,0.154,17.48,107.3981,18.22,19.25,50.14,0,110.7,13.26,19.03,127.9
"2009-06-24 00:41:00",1002624,12.8,164.1,0.893,0.235,17.4,107.3961,18.21,19.24,50.5,0,110.7,13.26,19.03,126.1
"2009-06-24 00:41:30",1002625,12.53,166,1.495,0.388,17.4,107.3961,18.21,19.23,50.89,0,110.7,13.26,19.03,128.0
"2009-06-24 00:42:00",1002626,12.53,165.3,1.283,0.319,17.35,107.3916,18.2,19.22,51.14,0,110.7,13.26,19.01,127.3
"2009-06-24 00:42:30",1002627,12.53,165,0.842,0.126,17.42,107.3691,18.14,19.19,51.37,0,110.7,13.26,18.96,127.0
"2009-06-24 00:43:00",1002628,12.34,163.7,0.514,0.122,17.39,107.3624,18.12,19.18,51.67,0,110.7,13.26,18.94,125.7
"2009-06-24 00:43:30",1002629,12.68,164.6,0.701,0.139,17.23,107.3624,18.12,19.18,51.86,0,110.7,13.26,18.94,126.6
"2009-06-24 00:44:00",1002630,12.57,163.7,0.529,0.181,17.38,107.3624,18.12,19.14,51.81,0,110.7,13.26,18.94,125.7
"2009-06-24 00:44:30",1002631,12.43,163,1.068,0.126,17.37,107.3624,18.12,19.15,51.87,0,110.7,13.26,18.94,125.0
"2009-06-24 00:45:00",1002632,12.2,162,0.485,0.114,17.41,107.3618,18.12,19.13,51.71,0,110.7,13.26,18.94,124.0
"2009-06-24 00:45:30",1002633,12.44,162.5,0.549,0.29,17.4,107.3624,18.12,19.12,51.57,0,110.7,13.26,18.94,124.5
"2009-06-24 00:46:00",1002634,13.02,163.6,0.418,0.119,17.54,107.3624,18.12,19.12,51.04,0,110.7,13.26,18.94,125.6
"2009-06-24 00:46:30",1002635,12.88,163.6,0.595,0.1,17.78,107.3643,18.13,19.13,50.59,0,110.7,13.26,18.94,125.6
"2009-06-24 00:47:00",1002636,13.07,164.3,0.514,0.076,17.73,107.3902,18.2,19.12,50.96,0,110.7,13.26,19.01,126.3
"2009-06-24 00:47:30",1002637,12.63,164.7,0.546,0.141,17.98,107.397,18.21,19.15,50.84,0,110.7,13.26,19.03,126.7
"2009-06-24 00:48:00",1002638,12.45,166,0.516,0.106,17.96,107.4201,18.27,19.16,50.83,0,110.7,13.25,19.09,128.0
"2009-06-24 00:48:30",1002639,13.13,166.5,0.523,0.09,17.83,107.4313,18.3,19.19,51.24,0,110.7,13.25,19.12,128.5
"2009-06-24 00:49:00",1002640,12.96,165.9,0.399,0.102,17.82,107.4578,18.37,19.2,51.28,0,110.7,13.25,19.19,127.9
"2009-06-24 00:49:30",1002641,12.62,164.6,0.576,0.106,17.76,107.4637,18.38,19.25,51.15,0,110.7,13.25,19.20,126.6
"2009-06-24 00:50:00",1002642,12.34,164.6,0.522,0.068,17.83,107.4668,18.39,19.26,51.02,0,110.7,13.25,19.21,126.6
"2009-06-24 00:50:30",1002643,12.32,164,0.27,0.073,17.78,107.4865,18.44,19.3,50.8,0,110.7,13.25,19.26,126.0
"2009-06-24 00:51:00",1002644,12.21,163.8,0.384,0.096,17.86,107.4975,18.47,19.31,50.49,0,110.7,13.25,19.29,125.8
"2009-06-24 00:51:30",1002645,11.89,163.1,0.442,0.069,17.63,107.4975,18.47,19.33,50.34,0,110.7,13.25,19.29,125.1
"2009-06-24 00:52:00",1002646,11.85,163.2,0.491,0.073,17.59,107.5014,18.48,19.35,50.27,0,110.7,13.25,19.30,125.2
"2009-06-24 00:52:30",1002647,11.76,163.4,0.468,0.067,17.63,107.5141,18.51,19.37,50.31,0,110.7,13.25,19.33,125.4
"2009-06-24 00:53:00",1002648,11.69,162.3,0.265,0.044,17.56,107.5301,18.55,19.39,50.4,0,110.7,13.25,19.37,124.3
"2009-06-24 00:53:30",1002649,11.78,164.2,1.4,0.105,17.66,107.5312,18.56,19.4,50.29,0,110.7,13.26,19.37,126.2
"2009-06-24 00:54:00",1002650,11.94,167.3,0.805,0.076,18.2,107.5312,18.56,19.41,49.28,0,110.7,13.26,19.37,129.3
"2009-06-24 00:54:30",1002651,12.09,165.6,1.004,0.062,17.97,107.5312,18.56,19.44,49.37,0,110.7,13.26,19.37,127.6
"2009-06-24 00:55:00",1002652,12.06,167.3,0.702,0.283,18.4,107.5315,18.56,19.45,48.75,0,110.7,13.26,19.37,129.3
"2009-06-24 00:55:30",1002653,11.68,168.3,0.591,0.241,18.9,107.5563,18.62,19.45,46.5,0,110.7,13.26,19.44,130.3
"2009-06-24 00:56:00",1002654,11.03,167.6,0.501,0.092,19.15,107.5678,18.65,19.48,44.7,0,110.7,13.26,19.47,129.6
"2009-06-24 00:56:30",1002655,11.19,168.6,0.597,0.081,19.12,107.5974,18.73,19.5,44.36,0,110.7,13.26,19.54,130.6
"2009-06-24 00:57:00",1002656,10.61,169.3,0.223,0.173,19.23,107.6272,18.8,19.54,43.64,0,110.7,13.26,19.62,131.3
"2009-06-24 00:57:30",1002657,10.28,170.7,0.545,0.129,19.15,107.6607,18.89,19.6,43.42,0,110.7,13.26,19.71,132.7
"2009-06-24 00:58:00",1002658,10.07,171.5,0.533,0.084,19.3,107.6936,18.97,19.64,42.55,0,110.7,13.26,19.79,133.5
"2009-06-24 00:58:30",1002659,9.77,172.2,0.321,0.191,19.33,107.7277,19.06,19.7,41.85,0,110.7,13.26,19.88,134.2
"2009-06-24 00:59:00",1002660,9.78,171.6,0.518,0.303,19.27,107.7645,19.16,19.77,41.41,0,110.7,13.26,19.97,133.6
"2009-06-24 00:59:30",1002661,9.51,174.1,1.009,0.504,19.14,107.8,19.25,19.84,41.34,0,110.7,13.26,20.07,136.1
"2009-06-24 01:00:00",1002662,8.81,173.9,1.453,0.398,19.21,107.831,19.33,19.92,40.6,0,110.7,13.26,20.15,135.9
"2009-06-24 01:00:30",1002663,9.71,173.7,0.713,0.322,18.88,107.8633,19.41,19.98,41.47,0,110.7,13.26,20.23,135.7
"2009-06-24 01:01:00",1002664,8.89,174.2,0.471,0.335,19.19,107.8895,19.48,20.05,40.41,0,110.7,13.26,20.30,136.2
"2009-06-24 01:01:30",1002665,8.76,173.4,0.469,0.122,19.19,107.916,19.54,20.12,40.06,0,110.7,13.26,20.36,135.4
"2009-06-24 01:02:00",1002666,8.91,174.2,0.644,0.407,19.11,107.9382,19.6,20.19,39.84,0,110.7,13.26,20.42,136.2
"2009-06-24 01:02:30",1002667,9.14,175,0.396,0.255,19.01,107.9663,19.67,20.25,39.97,0,110.7,13.26,20.49,137.0
"2009-06-24 01:03:00",1002668,9.06,175.8,0.718,0.191,19.11,107.9801,19.71,20.33,39.53,0,110.7,13.26,20.53,137.8
"2009-06-24 01:03:30",1002669,9.06,178.1,0.891,0.161,19.04,108.0035,19.77,20.39,39.44,0,110.8,13.26,20.59,140.1
"2009-06-24 01:04:00",1002670,8.79,178.1,0.385,0.119,19.15,108.0125,19.79,20.43,39.05,0,110.7,13.26,20.61,140.1
"2009-06-24 01:04:30",1002671,8.83,176.3,0.544,0.115,19.12,108.0358,19.85,20.49,38.97,0,110.8,13.25,20.67,138.3
"2009-06-24 01:05:00",1002672,8.89,174.4,0.423,0.11,19.04,108.0387,19.86,20.52,38.97,0,110.8,13.25,20.68,136.4
"2009-06-24 01:05:30",1002673,8.79,173.6,1.492,0.195,19.09,108.0634,19.92,20.58,38.88,0,110.8,13.25,20.74,135.6
"2009-06-24 01:06:00",1002674,9.93,173.8,2.111,0.503,18.03,108.0716,19.94,20.64,40.9,0,110.8,13.25,20.76,135.8
"2009-06-24 01:06:30",1002675,10.4,176.1,1.388,0.397,17.83,108.0676,19.93,20.68,43.49,0,110.8,13.25,20.75,138.1
"2009-06-24 01:07:00",1002676,9.35,175.2,0.707,0.271,18.77,108.0384,19.86,20.69,40.84,0,110.8,13.25,20.68,137.2
"2009-06-24 01:07:30",1002677,8.85,173.6,1.018,0.192,19.07,108.0375,19.86,20.69,39.47,0,110.8,13.25,20.68,135.6
"2009-06-24 01:08:00",1002678,7.931,173,0.36,0.188,19.2,108.0279,19.83,20.69,38.84,0,110.8,13.25,20.65,135.0
"2009-06-24 01:08:30",1002679,7.407,170.8,0.898,0.158,19.3,108.0178,19.81,20.7,38.47,0,110.8,13.25,20.63,132.8
"2009-06-24 01:09:00",1002680,7.397,169.3,0.358,0.125,19.31,108.0232,19.82,20.69,38.17,0,110.8,13.25,20.64,131.3
"2009-06-24 01:09:30",1002681,6.873,170.1,0.654,0.167,19.32,108.0339,19.85,20.7,38.05,0,110.8,13.25,20.67,132.1
"2009-06-24 01:10:00",1002682,6.597,173.7,1.602,0.148,19.47,108.0372,19.86,20.7,37.61,0,110.8,13.25,20.68,135.7
"2009-06-24 01:10:30",1002683,6.587,174.3,1.044,0.099,19.43,108.04,19.86,20.72,37.45,0,110.8,13.25,20.68,136.3
"2009-06-24 01:11:00",1002684,6.344,171.2,1.514,0.073,19.35,108.0665,19.93,20.74,37.38,0,110.8,13.25,20.75,133.2
"2009-06-24 01:11:30",1002685,6.36,169.5,0.6,0.076,19.28,108.0713,19.94,20.76,37.46,0,110.8,13.26,20.76,131.5
"2009-06-24 01:12:00",1002686,6.448,170.9,1.012,0.099,19.19,108.0954,20,20.78,37.52,0,110.8,13.26,20.83,132.9
"2009-06-24 01:12:30",1002687,6.454,171.4,0.805,0.057,19.14,108.1041,20.03,20.82,37.61,0,110.8,13.26,20.85,133.4
"2009-06-24 01:13:00",1002688,6.666,166.4,2.047,0.226,18.73,108.122,20.07,20.85,37.79,0,110.8,13.26,20.89,128.4
"2009-06-24 01:13:30",1002689,6.971,170.7,3.567,0.166,18.43,108.1327,20.1,20.88,38.56,0,110.8,13.26,20.92,132.7
"2009-06-24 01:14:00",1002690,6.978,175.1,1.794,0.25,18.37,108.1333,20.1,20.92,38.75,0,110.8,13.26,20.92,137.1
"2009-06-24 01:14:30",1002691,6.394,179.1,2.773,0.179,18.22,108.1466,20.14,20.94,38.95,0,110.8,13.26,20.96,141.1
"2009-06-24 01:15:00",1002692,6.716,180.3,1.6,0.132,18.42,108.1626,20.18,20.99,38.83,0,110.8,13.26,21.00,142.3
"2009-06-24 01:15:30",1002693,6.787,183.8,1.171,0.153,18.34,108.1638,20.18,21.01,38.69,0,110.8,13.26,21.00,145.8
"2009-06-24 01:16:00",1002694,6.704,185.1,1.513,0.114,18.43,108.1613,20.17,21.03,38.69,0,110.8,13.26,21.00,147.1
"2009-06-24 01:16:30",1002695,6.786,187.8,0.742,0.141,18.35,108.1559,20.16,21.04,38.8,0,110.8,13.26,20.98,149.8
"2009-06-24 01:17:00",1002696,6.853,187.3,0.983,0.106,18.36,108.1561,20.16,21.05,38.87,0,110.8,13.26,20.98,149.3
"2009-06-24 01:17:30",1002697,6.816,187.4,1.174,0.134,18.43,108.1654,20.18,21.06,38.8,0,110.8,13.26,21.01,149.4
"2009-06-24 01:18:00",1002698,6.774,188.6,1.155,0.148,18.44,108.1714,20.2,21.09,38.78,0,110.8,13.25,21.02,150.6
"2009-06-24 01:18:30",1002699,6.56,189.7,1.555,0.15,18.48,108.1752,20.21,21.12,38.73,0,110.8,13.25,21.03,151.7
"2009-06-24 01:19:00",1002700,6.154,190.5,1.34,0.183,18.42,108.1794,20.22,21.12,38.68,0,110.8,13.25,21.04,152.5
"2009-06-24 01:19:30",1002701,5.769,191.5,1.158,0.135,18.37,108.1778,20.22,21.12,38.69,0,110.8,13.25,21.04,153.5
"2009-06-24 01:20:00",1002702,5.427,192.3,0.782,0.169,18.37,108.175,20.21,21.13,38.75,0,110.8,13.25,21.03,154.3
"2009-06-24 01:20:30",1002703,4.937,194.2,1.001,0.087,18.33,108.1741,20.21,21.16,38.65,0,110.8,13.25,21.03,156.2
"2009-06-24 01:21:00",1002704,4.594,195.3,0.611,0.108,18.39,108.174,20.21,21.17,38.55,0,110.8,13.25,21.03,157.3
"2009-06-24 01:21:30",1002705,4.502,196.3,0.851,0.102,18.37,108.1862,20.24,21.19,38.5,0,110.8,13.25,21.06,158.3
"2009-06-24 01:22:00",1002706,4.461,196.9,1.119,0.105,18.45,108.1991,20.27,21.21,38.46,0,110.8,13.25,21.09,158.9
"2009-06-24 01:22:30",1002707,4.303,196.7,2.038,0.079,18.5,108.2039,20.28,21.22,38.38,0,110.8,13.25,21.11,158.7
"2009-06-24 01:23:00",1002708,4.243,190.2,3.082,0.099,18.77,108.2039,20.28,21.23,37.86,0,110.8,13.24,21.11,152.2
"2009-06-24 01:23:30",1002709,4.13,185.7,2.634,0.138,18.94,108.2039,20.28,21.25,37.26,0,110.8,13.25,21.11,147.7
"2009-06-24 01:24:00",1002710,3.826,183,2.839,0.204,19.06,108.2087,20.3,21.26,36.76,0,110.8,13.24,21.12,145.0
"2009-06-24 01:24:30",1002711,3.663,182.4,2.235,0.133,19.07,108.2256,20.34,21.29,36.36,0,110.8,13.24,21.16,144.4
"2009-06-24 01:25:00",1002712,3.314,185,2.207,0.155,19.11,108.2377,20.37,21.29,36.36,0,110.8,13.24,21.19,147.0
"2009-06-24 01:25:30",1002713,3.387,187.7,1.627,0.101,19.18,108.2377,20.37,21.32,36.26,0,110.8,13.24,21.19,149.7
"2009-06-24 01:26:00",1002714,3.515,191.4,3.819,0.116,19.14,108.2416,20.38,21.34,36.31,0,110.8,13.24,21.20,153.4
"2009-06-24 01:26:30",1002715,3.905,198.6,3.073,0.126,19.09,108.2669,20.44,21.36,36.5,0,110.8,13.24,21.27,160.6
"2009-06-24 01:27:00",1002716,4.662,208.7,1.155,0.262,18.41,108.2714,20.46,21.39,37.07,0,110.8,13.25,21.28,170.7
"2009-06-24 01:27:30",1002717,5.38,208.7,1.473,0.183,18.34,108.2714,20.46,21.4,37.86,0,110.8,13.25,21.28,170.7
"2009-06-24 01:28:00",1002718,6.098,209.2,0.65,0.288,18.25,108.2734,20.46,21.43,38.05,0,110.8,13.25,21.28,171.2
"2009-06-24 01:28:30",1002719,6.678,218,7.881,0.132,17.36,108.2824,20.48,21.43,39.31,0,110.8,13.25,21.31,180.0
"2009-06-24 01:29:00",1002720,6.793,232.3,3.385,0.26,16.72,108.2959,20.52,21.45,43.76,0,110.8,13.25,21.34,194.3
"2009-06-24 01:29:30",1002721,6.492,237.5,2.834,0.172,16.74,108.2855,20.49,21.47,45.71,0,110.8,13.25,21.32,199.5
"2009-06-24 01:30:00",1002722,6.571,240.1,1.393,0.254,17.04,108.2714,20.46,21.48,46.46,0,110.8,13.25,21.28,202.1
"2009-06-24 01:30:30",1002723,6.257,236.8,3.298,0.204,17.47,108.2596,20.43,21.46,45.6,0,110.8,13.25,21.25,198.8
"2009-06-24 01:31:00",1002724,5.485,221.6,5.671,0.287,18.17,108.2368,20.37,21.43,43.81,0,110.8,13.25,21.19,183.6
"2009-06-24 01:31:30",1002725,4.905,214,4.605,0.247,18.53,108.2093,20.3,21.39,41.56,0,110.8,13.25,21.12,176.0
"2009-06-24 01:32:00",1002726,5.325,205.1,4.023,0.17,19.06,108.2014,20.28,21.35,40.6,0,110.8,13.25,21.10,167.1
"2009-06-24 01:32:30",1002727,5.48,211,3.191,0.252,18.61,108.1744,20.21,21.3,40.78,0,110.8,13.25,21.03,173.0
"2009-06-24 01:33:00",1002728,5.627,217.2,3.546,0.184,19.05,108.1659,20.19,21.26,39.87,0,110.8,13.25,21.01,179.2
"2009-06-24 01:33:30",1002729,6.14,239.3,7.176,0.3,17.66,108.1378,20.11,21.22,42.16,0,110.8,13.25,20.94,201.3
"2009-06-24 01:34:00",1002730,7.192,240.1,1.038,0.405,17.47,108.1142,20.05,21.19,45.26,0,110.8,13.25,20.87,202.1
"2009-06-24 01:34:30",1002731,7.717,239.5,1.53,0.23,17.59,108.088,19.99,21.14,45.43,0,110.8,13.25,20.81,201.5
"2009-06-24 01:35:00",1002732,7.497,241.8,2.788,0.305,17.5,108.0534,19.9,21.08,46.21,0,110.8,13.25,20.72,203.8
"2009-06-24 01:35:30",1002733,7.675,243.9,2.104,0.155,17.58,108.0188,19.81,21.01,46.92,0,110.8,13.25,20.63,205.9
"2009-06-24 01:36:00",1002734,7.574,245.4,3.454,0.2,17.76,107.9802,19.71,20.95,47.06,0,110.8,13.25,20.53,207.4
"2009-06-24 01:36:30",1002735,7.561,250.5,1.915,0.146,17.83,107.94,19.61,20.87,47.8,0,110.8,13.25,20.43,212.5
"2009-06-24 01:37:00",1002736,7.411,255.5,2.535,0.181,17.8,107.9009,19.51,20.79,48.38,0,110.8,13.25,20.33,217.5
"2009-06-24 01:37:30",1002737,7.465,257.9,1.672,0.168,17.82,107.861,19.4,20.72,49.18,0,110.8,13.25,20.22,219.9
"2009-06-24 01:38:00",1002738,7.07,260.5,0.917,0.12,17.79,107.8238,19.31,20.62,50.01,0,110.8,13.25,20.13,222.5
"2009-06-24 01:38:30",1002739,6.868,260.1,1.368,0.136,17.73,107.7847,19.21,20.55,50.75,0,110.8,13.25,20.03,222.1
"2009-06-24 01:39:00",1002740,6.94,257.3,0.675,0.062,17.8,107.7487,19.12,20.47,51.35,0,110.8,13.25,19.93,219.3
"2009-06-24 01:39:30",1002741,7.022,256.8,1.668,0.164,17.9,107.7121,19.02,20.39,51.48,0,110.8,13.25,19.84,218.8
"2009-06-24 01:40:00",1002742,7.025,249.4,1.64,0.124,17.84,107.6761,18.93,20.29,51.1,0,110.8,13.25,19.75,211.4
"2009-06-24 01:40:30",1002743,7.575,248.3,1.455,0.2,17.87,107.6415,18.84,20.21,51.15,0,110.8,13.25,19.66,210.3
"2009-06-24 01:41:00",1002744,7.568,254.2,1.993,0.11,17.97,107.6106,18.76,20.13,51.38,0,110.8,13.25,19.58,216.2
"2009-06-24 01:41:30",1002745,7.287,253.3,1.635,0.258,17.93,107.5771,18.67,20.05,51.96,0,110.8,13.25,19.49,215.3
"2009-06-24 01:42:00",1002746,7.013,255.1,1.885,0.111,17.92,107.5467,18.6,19.97,52.41,0,110.8,13.25,19.41,217.1
"2009-06-24 01:42:30",1002747,7.339,259.7,2.654,0.227,17.92,107.5149,18.52,19.9,52.9,0,110.8,13.25,19.33,221.7
"2009-06-24 01:43:00",1002748,7.122,262.6,2.641,0.204,17.9,107.4859,18.44,19.82,53.75,0,110.8,13.25,19.26,224.6
"2009-06-24 01:43:30",1002749,7.344,265,2.611,0.231,18.05,107.4599,18.37,19.75,53.72,0,110.8,13.25,19.19,227.0
"2009-06-24 01:44:00",1002750,7.774,268.7,1.693,0.195,17.95,107.4307,18.3,19.68,54.12,0,110.8,13.25,19.12,230.7
"2009-06-24 01:44:30",1002751,7.313,266.9,1.977,0.194,17.95,107.4052,18.23,19.6,53.96,0,110.8,13.26,19.05,228.9
"2009-06-24 01:45:00",1002752,7.351,267.8,2.418,0.207,17.89,107.388,18.19,19.53,54.26,0,110.8,13.26,19.01,229.8
"2009-06-24 01:45:30",1002753,7.004,270.3,0.822,0.091,17.92,107.3672,18.14,19.46,54.62,0,110.8,13.26,18.95,232.3
"2009-06-24 01:46:00",1002754,7.259,270.8,1.025,0.263,17.98,107.3434,18.08,19.38,55.22,0,110.8,13.26,18.89,232.8
"2009-06-24 01:46:30",1002755,7.899,268.2,2.161,0.18,17.93,107.3305,18.04,19.36,55.79,0,110.8,13.26,18.86,230.2